Regional Weather Roundup
Issued by NWS State College, PA

Home | Current Version | Previous Version | Graphics & Text | Print | Product List | Glossary Off
Versions: 1 2 3 4 5 6 7 8 9 10 11 12 13 14 15 16 17 18 19 20 21 22 23 24 25 26 27 28 29 30 31 32 33 34 35 36 37 38 39 40 41 42 43 44 45 46 47 48 49 50

000
ASUS41 KCTP 212303
RWRCTP

REGIONAL WEATHER ROUNDUP
NATIONAL WEATHER SERVICE STATE COLLEGE PA
700 PM EDT THU AUG 21 2014

Note: "fair" indicates few or no clouds below 12,000 feet with no
significant weather and/or obstructions to visibility.

* = STATION THAT DOES NOT REPORT PRECIPITATION /E.G. RAIN...SNOW...ETC/
    THUNDER OR FOG.

PAZ002>004-007>009-013>016-020>023-029>032-220000-
WESTERN PENNSYLVANIA

CITY           SKY/WX    TMP DP  RH WIND       PRES   REMARKS
ERIE           CLOUDY    75  65  70 NW3       29.98S
MEADVILLE      PTSUNNY   72  66  81 SW5       30.02R
FRANKLIN*      PTSUNNY   70  64  83 S6        30.03S
NEW CASTLE     NOT AVBL
BEAVER COUNTY  PTSUNNY   75  66  73 SW7       30.02S
BUTLER*        CLOUDY    73  66  78 SW10      30.04S
PITTSBURGH INT CLOUDY    74  67  78 SW9       30.03S
PITTSBURGH     CLOUDY    74  66  76 SW15      30.03S
INDIANA*       PTSUNNY   73  68  83 SW8       30.07F
LATROBE        PTSUNNY   73  72  94 SW9       30.04S
WASHINGTON CO* CLOUDY    72  66  83 SW6       30.06S
$$

PAZ004>006-010>012-017>019-024>028-033>037-041-042-045-046-049>053-220000-
CENTRAL PENNSYLVANIA

CITY           SKY/WX    TMP DP  RH WIND       PRES   REMARKS
BRADFORD       TSTM      70  64  81 SW13      30.04R
DUBOIS         CLOUDY    67  63  87 CALM      30.03S
CLEARFIELD     CLOUDY    68  67  96 CALM      30.02S FOG
JOHNSTOWN      CLOUDY    71  64  78 SW7       30.07F
ALTOONA        CLOUDY    75  66  73 W8        30.04S
STATE COLLEGE  PTSUNNY   66  66 100 CALM      30.01F
WILLIAMSPORT   MOCLDY    79  67  66 CALM      29.97R
SELINSGROVE    MOCLDY    76  68  76 S3        30.00R
FT INDIANTOWN  CLOUDY    76  71  84 W8        30.00R
CAPITAL CITY   CLOUDY    71  68  90 W8        29.99S
HARRISBURG     CLOUDY    73  70  90 W5        29.98F
YORK           HVY RAIN  68  65  90 CALM      29.99F VSB 1
$$

PAZ038>040-043-044-047-048-054-055-060>062-067>071-220000-
EASTERN PENNSYLVANIA

CITY           SKY/WX    TMP DP  RH WIND       PRES   REMARKS
SCRANTON       MOCLDY    79  67  66 CALM      29.99R
MOUNT POCONO   MOCLDY    72  66  81 S7        30.05R
ALLENTOWN      MOCLDY    81  68  64 S8        29.98R
QUAKERTOWN*    MOCLDY    79  70  73 MISG      30.00F
READING        CLOUDY    81  70  69 S9        29.97S
LANCASTER      CLOUDY    77  72  84 S7        29.98F
COATESVILLE    CLOUDY    75  75 100 S3        30.02R
POTTSTOWN      CLOUDY    79  69  71 S6        30.01R
BLUE BELL      CLOUDY    81  70  69 CALM      30.00R
DOYLESTOWN     MOCLDY    78  68  71 S6        29.99R
WILLOW GROVE   NOT AVBL
NORTH PHILA    CLOUDY    79  64  60 SE10      30.01R
PHILADELPHIA   CLOUDY    80  69  69 S9        30.00R
$$



USA.gov is the U.S. government's official web portal to all federal, state and local government web resources and services.